Overview Statistics Trail Chart Weather Telemetry Raw packets
 

This is the latest recevied weather packets stored in our database for station/object WP3OF-2. If no packets are shown the sender has not sent any weather packets the latest 10 day(s).

<< 30 31 32 33 34 35 36 >>
Time Temp. Humidity Pressure Rain* Wind** Luminosity Snow
1788355659 23.89° C 88% 1028.2 hPa 0 mm - 690 W/m² -
1788355355 23.89° C 88% 1028.2 hPa 0 mm - 676 W/m² -
1788355050 23.33° C 88% 1027.9 hPa 0 mm - 653 W/m² -
1788354746 23.89° C 87% 1027.9 hPa 0 mm - 604 W/m² -
1788354440 23.33° C 89% 1027.9 hPa 0 mm - 599 W/m² -
1788354136 23.33° C 88% 1027.9 hPa 0 mm - 565 W/m² -
1788353831 23.33° C 89% 1027.9 hPa 0 mm - 523 W/m² -
1788353528 23.33° C 88% 1027.9 hPa 0 mm - 446 W/m² -
1788353229 23.33° C 86% 1027.9 hPa 0 mm - 410 W/m² -
1788352918 23.33° C 85% 1027.4 hPa 0 mm - 394 W/m² -
1788352613 22.78° C 87% 1027.9 hPa 0 mm - 358 W/m² -
1788352308 22.78° C 86% 1027.4 hPa 0 mm - 331 W/m² -
1788352002 22.78° C 87% 1027.1 hPa 0 mm - 311 W/m² -
1788351698 22.78° C 88% 1027.4 hPa 0 mm - 307 W/m² -
1788351393 22.78° C 85% 1027.4 hPa 0 mm - 273 W/m² -
1788351093 22.78° C 86% 1027.4 hPa 0 mm - 258 W/m² -
1788350784 22.78° C 86% 1027.1 hPa 0 mm - 235 W/m² -
1788350480 22.22° C 85% 1027.4 hPa 0 mm - 206 W/m² -
1788350175 22.22° C 87% 1027.1 hPa 0 mm - 195 W/m² -
1788349871 22.78° C 86% 1027.1 hPa 0 mm - 172 W/m² -
1788349567 22.78° C 87% 1027.1 hPa 0 mm - 169 W/m² -
1788349266 22.22° C 85% 1026.7 hPa 0 mm - 128 W/m² -
1788348962 22.22° C 85% 1026.7 hPa 0 mm - 128 W/m² -
1788348656 22.22° C 85% 1026.7 hPa 0 mm - 81 W/m² -
1788348346 22.22° C 85% 1026.7 hPa 0 mm - 52 W/m² -

* Rain latest hour (hover to see other rain measurements)
** Current wind speed in m/s (hover to see current wind gust speed)